HISPASAT 30W-6

Last updated on Tue Oct 28 2025 00:02:50 GMT+0000 (Coordinated Universal Time)

1 43228U 18023A 25300.19836448 -.00000204 00000+0 00000+0 0 9991 2 43228 0.0506 49.7091 0002739 173.9951 213.5569 1.00271008 28064
UTC large
Height (km)
Speed (km/s)
/
Latitude / Longitude
Inclination (degrees)
Orbital Period (minutes)
Azimuth
Elevation
Range (km)
Doppler Factor

Next 0 passes for location: London (51.5072 / 0.1276)

Sorry there are no passes over London.